| time (UTC) | temp F | wind direction | speed MPH | gust MPH | rain 1hr in | rain 24hr in | rain mn in | humidity % | barometer mb |
| 20260904070804 | 74 | 81 | 7.0 | 12.0 | 0.00 | 0.00 | 0.00 | 61 | 1018.6 |
| 20260904070305 | 74 | 80 | 8.0 | 12.0 | 0.00 | 0.00 | 0.00 | 60 | 1018.5 |
| 20260904065805 | 75 | 49 | 6.0 | 12.0 | 0.00 | 0.00 | 0.00 | 60 | 1018.5 |
| 20260904064804 | 76 | 94 | 9.0 | 15.0 | 0.00 | 0.00 | 0.00 | 58 | 1018.3 |
| 20260904064305 | 76 | 44 | 6.0 | 12.0 | 0.00 | 0.00 | 0.00 | 58 | 1018.4 |
| 20260904063805 | 76 | 87 | 7.0 | 12.0 | 0.00 | 0.00 | 0.00 | 57 | 1018.2 |
| 20260904062804 | 76 | 45 | 7.0 | 13.0 | 0.00 | 0.00 | 0.00 | 56 | 1018.1 |
| 20260904061804 | 76 | 65 | 7.0 | 15.0 | 0.00 | 0.00 | 0.00 | 55 | 1017.9 |
| 20260904061306 | 76 | 58 | 6.0 | 13.0 | 0.00 | 0.00 | 0.00 | 55 | 1017.9 |
| 20260904060304 | 77 | 86 | 9.0 | 15.0 | 0.00 | 0.00 | 0.00 | 54 | 1017.8 |
| 20260904055806 | 77 | 59 | 7.0 | 13.0 | 0.00 | 0.00 | 0.00 | 54 | 1017.8 |
| 20260904055306 | 77 | 84 | 6.0 | 13.0 | 0.00 | 0.00 | 0.00 | 54 | 1017.7 |
| 20260904054805 | 77 | 61 | 7.0 | 12.0 | 0.00 | 0.00 | 0.00 | 53 | 1017.9 |
| 20260904054306 | 77 | 74 | 7.0 | 12.0 | 0.00 | 0.00 | 0.00 | 52 | 1017.8 |
| 20260904053806 | 77 | 65 | 7.0 | 13.0 | 0.00 | 0.00 | 0.00 | 53 | 1017.9 |
| 20260904053304 | 77 | 61 | 9.0 | 12.0 | 0.00 | 0.00 | 0.00 | 53 | 1017.9 |
| 20260904052805 | 77 | 73 | 7.0 | 14.0 | 0.00 | 0.00 | 0.00 | 53 | 1017.9 |
| 20260904052307 | 77 | 86 | 9.0 | 14.0 | 0.00 | 0.00 | 0.00 | 51 | 1017.9 |
| 20260904051305 | 78 | 101 | 9.0 | 14.0 | 0.00 | 0.00 | 0.00 | 51 | 1017.9 |
| 20260904050805 | 78 | 64 | 8.0 | 14.0 | 0.00 | 0.00 | 0.00 | 51 | 1017.9 |
| 20260904050304 | 78 | 69 | 7.0 | 13.0 | 0.00 | 0.00 | 0.00 | 51 | 1017.9 |
| 20260904045805 | 78 | 60 | 10.0 | 15.0 | 0.00 | 0.00 | 0.00 | 50 | 1018.0 |
| 20260904045307 | 78 | 77 | 9.0 | 13.0 | 0.00 | 0.00 | 0.00 | 50 | 1018.0 |
| 20260904044304 | 78 | 67 | 7.0 | 13.0 | 0.00 | 0.00 | 0.00 | 50 | 1018.1 |
| 20260904043304 | 78 | 88 | 6.0 | 18.0 | 0.00 | 0.00 | 0.00 | 52 | 1018.5 |
| 20260904042805 | 79 | 83 | 7.0 | 14.0 | 0.00 | 0.00 | 0.00 | 49 | 1018.5 |
| 20260904042306 | 79 | 92 | 7.0 | 15.0 | 0.00 | 0.00 | 0.00 | 52 | 1018.6 |
| 20260904041804 | 78 | 67 | 9.0 | 14.0 | 0.00 | 0.00 | 0.00 | 50 | 1018.5 |
| 20260904041304 | 78 | 72 | 7.0 | 14.0 | 0.00 | 0.00 | 0.00 | 51 | 1018.7 |
| 20260904040305 | 78 | 113 | 8.0 | 14.0 | 0.00 | 0.00 | 0.00 | 51 | 1018.8 |
| 20260904035805 | 78 | 91 | 7.0 | 14.0 | 0.00 | 0.00 | 0.00 | 51 | 1018.9 |
| 20260904035306 | 79 | 73 | 10.0 | 14.0 | 0.00 | 0.00 | 0.00 | 51 | 1018.9 |
| 20260904034804 | 79 | 55 | 9.0 | 12.0 | 0.00 | 0.00 | 0.00 | 52 | 1019.0 |
| 20260904034305 | 79 | 82 | 5.0 | 12.0 | 0.00 | 0.00 | 0.00 | 52 | 1019.1 |
| 20260904033805 | 79 | 41 | 9.0 | 16.0 | 0.00 | 0.00 | 0.00 | 53 | 1019.2 |
| 20260904032804 | 78 | 46 | 4.0 | 12.0 | 0.00 | 0.00 | 0.00 | 53 | 1019.4 |
| 20260904032306 | 78 | 102 | 13.0 | 21.0 | 0.00 | 0.00 | 0.00 | 52 | 1019.4 |
| 20260904031305 | 78 | 65 | 9.0 | 16.0 | 0.00 | 0.00 | 0.00 | 52 | 1019.5 |
| 20260904030805 | 78 | 70 | 4.0 | 13.0 | 0.00 | 0.00 | 0.00 | 53 | 1019.6 |
| 20260904030305 | 78 | 74 | 9.0 | 18.0 | 0.00 | 0.00 | 0.00 | 52 | 1019.7 |
| 20260904025805 | 78 | 66 | 5.0 | 12.0 | 0.00 | 0.00 | 0.00 | 54 | 1019.7 |
| 20260904025306 | 78 | 83 | 7.0 | 17.0 | 0.00 | 0.00 | 0.00 | 54 | 1019.7 |
| 20260904024804 | 77 | 35 | 6.0 | 17.0 | 0.00 | 0.00 | 0.00 | 54 | 1019.8 |
| 20260904023805 | 77 | 71 | 10.0 | 17.0 | 0.00 | 0.00 | 0.00 | 55 | 1020.1 |
| 20260904023304 | 77 | 52 | 7.0 | 16.0 | 0.00 | 0.00 | 0.00 | 55 | 1020.1 |
| 20260904022805 | 77 | 100 | 12.0 | 17.0 | 0.00 | 0.00 | 0.00 | 55 | 1020.3 |
| 20260904022306 | 78 | 87 | 9.0 | 12.0 | 0.00 | 0.00 | 0.00 | 55 | 1020.3 |
| 20260904021804 | 78 | 65 | 5.0 | 14.0 | 0.00 | 0.00 | 0.00 | 56 | 1020.4 |
| 20260904021305 | 77 | 43 | 9.0 | 13.0 | 0.00 | 0.00 | 0.00 | 57 | 1020.5 |
| 20260904020804 | 77 | 86 | 9.0 | 15.0 | 0.00 | 0.00 | 0.00 | 56 | 1020.6 |
| 20260904015805 | 76 | 60 | 6.0 | 14.0 | 0.00 | 0.00 | 0.00 | 57 | 1020.7 |
| 20260904015307 | 77 | 64 | 6.0 | 14.0 | 0.00 | 0.00 | 0.00 | 56 | 1020.8 |
| 20260904014804 | 76 | 42 | 8.0 | 14.0 | 0.00 | 0.00 | 0.00 | 56 | 1021.0 |
| 20260904014304 | 76 | 67 | 7.0 | 12.0 | 0.00 | 0.00 | 0.00 | 56 | 1021.1 |
| 20260904013805 | 76 | 63 | 6.0 | 13.0 | 0.00 | 0.00 | 0.00 | 57 | 1021.1 |
| 20260904013306 | 76 | 53 | 9.0 | 15.0 | 0.00 | 0.00 | 0.00 | 57 | 1021.2 |
| 20260904012805 | 76 | 78 | 7.0 | 12.0 | 0.00 | 0.00 | 0.00 | 56 | 1021.3 |
| 20260904011805 | 76 | 50 | 9.0 | 15.0 | 0.00 | 0.00 | 0.00 | 57 | 1021.4 |
| 20260904011305 | 76 | 80 | 6.0 | 13.0 | 0.00 | 0.00 | 0.00 | 57 | 1021.5 |
| 20260904010805 | 76 | 27 | 7.0 | 15.0 | 0.00 | 0.00 | 0.00 | 56 | 1021.7 |
| 20260904010304 | 76 | 83 | 6.0 | 13.0 | 0.00 | 0.00 | 0.00 | 57 | 1021.7 |
| 20260904005806 | 76 | 58 | 8.0 | 12.0 | 0.00 | 0.00 | 0.00 | 59 | 1021.7 |
| 20260904005306 | 75 | 55 | 9.0 | 12.0 | 0.00 | 0.00 | 0.00 | 60 | 1021.9 |
| 20260904004805 | 75 | 85 | 5.0 | 12.0 | 0.00 | 0.00 | 0.00 | 59 | 1021.9 |
| 20260904004305 | 75 | 70 | 6.0 | 13.0 | 0.00 | 0.00 | 0.00 | 59 | 1022.0 |
| 20260904003805 | 74 | 60 | 7.0 | 12.0 | 0.00 | 0.00 | 0.00 | 59 | 1022.0 |
| 20260904003305 | 74 | 69 | 9.0 | 14.0 | 0.00 | 0.00 | 0.00 | 60 | 1022.1 |
| 20260904002804 | 74 | 79 | 9.0 | 15.0 | 0.00 | 0.00 | 0.00 | 60 | 1022.3 |
| 20260904002306 | 73 | 39 | 6.0 | 15.0 | 0.00 | 0.00 | 0.00 | 62 | 1022.2 |
| 20260904001804 | 73 | 65 | 10.0 | 13.0 | 0.00 | 0.00 | 0.00 | 64 | 1022.3 |
| 20260904001304 | 72 | 131 | 5.0 | 9.0 | 0.00 | 0.00 | 0.00 | 67 | 1022.4 |
| 20260904000804 | 72 | 109 | 6.0 | 14.0 | 0.00 | 0.00 | 0.00 | 67 | 1022.5 |
| 20260903235805 | 72 | 82 | 9.0 | 13.0 | 0.00 | 0.00 | 0.00 | 69 | 1022.7 |
| 20260903235305 | 71 | 112 | 10.0 | 14.0 | 0.00 | 0.00 | 0.00 | 69 | 1022.7 |
| 20260903234804 | 71 | 67 | 7.0 | 12.0 | 0.00 | 0.00 | 0.00 | 70 | 1022.8 |
| 20260903234304 | 71 | 72 | 7.0 | 12.0 | 0.00 | 0.00 | 0.00 | 71 | 1022.7 |
| 20260903233804 | 70 | 99 | 6.0 | 9.0 | 0.00 | 0.00 | 0.00 | 72 | 1022.8 |
| 20260903233304 | 70 | 93 | 6.0 | 12.0 | 0.00 | 0.00 | 0.00 | 72 | 1022.8 |
| 20260903232806 | 70 | 105 | 7.0 | 10.0 | 0.00 | 0.00 | 0.00 | 73 | 1022.9 |
| 20260903231804 | 58 | 3 | 0.0 | 0.0 | 0.00 | 0.00 | 0.00 | 86 | 1022.8 |
| 20260903231304 | 58 | 3 | 0.0 | 0.0 | 0.00 | 0.00 | 0.00 | 86 | 1022.8 |
| 20260903230818 | 58 | 3 | 0.0 | 0.0 | 0.00 | 0.00 | 0.00 | 86 | 1022.8 |
| 20260903230304 | 58 | 2 | 0.0 | 0.0 | 0.00 | 0.00 | 0.00 | 86 | 1022.8 |
| 20260903225805 | 58 | 3 | 0.0 | 0.0 | 0.00 | 0.00 | 0.00 | 86 | 1022.8 |
| 20260903225306 | 58 | 3 | 0.0 | 0.0 | 0.00 | 0.00 | 0.00 | 86 | 1022.8 |
| 20260903224804 | 58 | 3 | 0.0 | 0.0 | 0.00 | 0.00 | 0.00 | 86 | 1022.7 |
| 20260903224305 | 58 | 3 | 0.0 | 0.0 | 0.00 | 0.00 | 0.00 | 86 | 1022.7 |
| 20260903223804 | 58 | 2 | 0.0 | 0.0 | 0.00 | 0.00 | 0.00 | 86 | 1022.7 |
| 20260903223305 | 58 | 3 | 0.0 | 0.0 | 0.00 | 0.00 | 0.00 | 86 | 1022.7 |
| 20260903222805 | 58 | 3 | 0.0 | 0.0 | 0.00 | 0.00 | 0.00 | 86 | 1022.7 |
| 20260903222306 | 58 | 3 | 0.0 | 0.0 | 0.00 | 0.00 | 0.00 | 86 | 1022.7 |
| 20260903221804 | 58 | 3 | 0.0 | 0.0 | 0.00 | 0.00 | 0.00 | 86 | 1022.7 |
| 20260903221305 | 58 | 2 | 0.0 | 0.0 | 0.00 | 0.00 | 0.00 | 86 | 1022.6 |
| 20260903220805 | 58 | 3 | 0.0 | 0.0 | 0.00 | 0.00 | 0.00 | 86 | 1022.7 |
| 20260903220305 | 58 | 3 | 0.0 | 0.0 | 0.00 | 0.00 | 0.00 | 86 | 1022.6 |
| 20260903215805 | 58 | 3 | 0.0 | 0.0 | 0.00 | 0.00 | 0.00 | 86 | 1022.6 |
| 20260903215306 | 58 | 3 | 0.0 | 0.0 | 0.00 | 0.00 | 0.00 | 86 | 1022.6 |
| 20260903214805 | 58 | 3 | 0.0 | 0.0 | 0.00 | 0.00 | 0.00 | 86 | 1022.5 |
| 20260903214304 | 58 | 3 | 0.0 | 0.0 | 0.00 | 0.00 | 0.00 | 86 | 1022.4 |
| 20260903213805 | 58 | 3 | 0.0 | 0.0 | 0.00 | 0.00 | 0.00 | 86 | 1022.3 |
| 20260903213305 | 58 | 3 | 0.0 | 0.0 | 0.00 | 0.00 | 0.00 | 86 | 1022.2 |
| 20260903212805 | 58 | 3 | 0.0 | 0.0 | 0.00 | 0.00 | 0.00 | 86 | 1022.1 |
| 20260903211804 | 58 | 3 | 0.0 | 0.0 | 0.00 | 0.00 | 0.00 | 86 | 1022.0 |
| 20260903211306 | 58 | 3 | 0.0 | 0.0 | 0.00 | 0.00 | 0.00 | 86 | 1022.0 |
| 20260903210804 | 58 | 3 | 0.0 | 0.0 | 0.00 | 0.00 | 0.00 | 86 | 1021.9 |
| 20260903210304 | 58 | 3 | 0.0 | 0.0 | 0.00 | 0.00 | 0.00 | 86 | 1021.8 |
| 20260903205805 | 58 | 3 | 0.0 | 0.0 | 0.00 | 0.00 | 0.00 | 86 | 1021.7 |
| 20260903205306 | 58 | 3 | 0.0 | 0.0 | 0.00 | 0.00 | 0.00 | 86 | 1021.7 |
| 20260903204805 | 58 | 2 | 0.0 | 0.0 | 0.00 | 0.00 | 0.00 | 86 | 1021.6 |
| 20260903204305 | 58 | 3 | 0.0 | 0.0 | 0.00 | 0.00 | 0.00 | 86 | 1021.6 |
| 20260903203805 | 58 | 3 | 0.0 | 0.0 | 0.00 | 0.00 | 0.00 | 86 | 1021.4 |
| 20260903203304 | 58 | 3 | 0.0 | 0.0 | 0.00 | 0.00 | 0.00 | 86 | 1021.4 |
| 20260903202805 | 58 | 3 | 0.0 | 0.0 | 0.00 | 0.00 | 0.00 | 86 | 1021.4 |
| 20260903202306 | 58 | 3 | 0.0 | 0.0 | 0.00 | 0.00 | 0.00 | 86 | 1021.4 |
| 20260903201806 | 58 | 3 | 0.0 | 0.0 | 0.00 | 0.00 | 0.00 | 86 | 1021.3 |
| 20260903201304 | 58 | 2 | 0.0 | 0.0 | 0.00 | 0.00 | 0.00 | 86 | 1021.3 |
| 20260903200805 | 58 | 3 | 0.0 | 0.0 | 0.00 | 0.00 | 0.00 | 86 | 1021.3 |
| 20260903200304 | 58 | 3 | 0.0 | 0.0 | 0.00 | 0.00 | 0.00 | 86 | 1021.3 |
| 20260903195804 | 58 | 3 | 0.0 | 0.0 | 0.00 | 0.00 | 0.00 | 86 | 1021.2 |
| 20260903195306 | 58 | 3 | 0.0 | 0.0 | 0.00 | 0.00 | 0.00 | 86 | 1021.2 |
| 20260903194804 | 58 | 3 | 0.0 | 0.0 | 0.00 | 0.00 | 0.00 | 86 | 1021.1 |
| 20260903192805 | 58 | 3 | 0.0 | 0.0 | 0.00 | 0.00 | 0.00 | 86 | 1020.9 |
| 20260903192306 | 58 | 2 | 0.0 | 0.0 | 0.00 | 0.00 | 0.00 | 86 | 1020.8 |
| 20260903191304 | 58 | 3 | 0.0 | 0.0 | 0.00 | 0.00 | 0.00 | 86 | 1020.7 |
| 20260903190805 | 58 | 3 | 0.0 | 0.0 | 0.00 | 0.00 | 0.00 | 86 | 1020.7 |
| 20260903185805 | 58 | 3 | 0.0 | 0.0 | 0.00 | 0.00 | 0.00 | 86 | 1020.8 |
| 20260903185306 | 58 | 3 | 0.0 | 0.0 | 0.00 | 0.00 | 0.00 | 86 | 1020.7 |
| 20260903184804 | 58 | 2 | 0.0 | 0.0 | 0.00 | 0.00 | 0.00 | 86 | 1020.7 |
| 20260903184305 | 58 | 3 | 0.0 | 0.0 | 0.00 | 0.00 | 0.00 | 86 | 1020.7 |
| 20260903183805 | 58 | 3 | 0.0 | 0.0 | 0.00 | 0.00 | 0.00 | 86 | 1020.6 |
| 20260903183305 | 58 | 3 | 0.0 | 0.0 | 0.00 | 0.00 | 0.00 | 86 | 1020.5 |
| 20260903182806 | 58 | 3 | 0.0 | 0.0 | 0.00 | 0.00 | 0.00 | 86 | 1020.6 |
| 20260903182306 | 58 | 3 | 0.0 | 0.0 | 0.00 | 0.00 | 0.00 | 86 | 1020.6 |
| 20260903181305 | 58 | 3 | 0.0 | 0.0 | 0.00 | 0.00 | 0.00 | 86 | 1020.5 |
| 20260903180804 | 58 | 3 | 0.0 | 0.0 | 0.00 | 0.00 | 0.00 | 86 | 1020.5 |
| 20260903180305 | 58 | 3 | 0.0 | 0.0 | 0.00 | 0.00 | 0.00 | 86 | 1020.5 |
| 20260903175806 | 58 | 2 | 0.0 | 0.0 | 0.00 | 0.00 | 0.00 | 86 | 1020.5 |
| 20260903175306 | 58 | 3 | 0.0 | 0.0 | 0.00 | 0.00 | 0.00 | 86 | 1020.5 |
| 20260903174805 | 58 | 3 | 0.0 | 0.0 | 0.00 | 0.00 | 0.00 | 86 | 1020.6 |
| 20260903173305 | 58 | 3 | 0.0 | 0.0 | 0.00 | 0.00 | 0.00 | 86 | 1020.6 |
| 20260903172805 | 58 | 3 | 0.0 | 0.0 | 0.00 | 0.00 | 0.00 | 86 | 1020.7 |
| 20260903172306 | 58 | 2 | 0.0 | 0.0 | 0.00 | 0.00 | 0.00 | 86 | 1020.8 |
| 20260903171805 | 58 | 3 | 0.0 | 0.0 | 0.00 | 0.00 | 0.00 | 86 | 1020.8 |
| 20260903171304 | 58 | 3 | 0.0 | 0.0 | 0.00 | 0.00 | 0.00 | 86 | 1020.9 |
| 20260903170806 | 58 | 3 | 0.0 | 0.0 | 0.00 | 0.00 | 0.00 | 86 | 1020.9 |
| 20260903170304 | 58 | 3 | 0.0 | 0.0 | 0.00 | 0.00 | 0.00 | 86 | 1021.0 |
| 20260903165804 | 58 | 3 | 0.0 | 0.0 | 0.00 | 0.00 | 0.00 | 86 | 1021.0 |
| 20260903165305 | 58 | 3 | 0.0 | 0.0 | 0.00 | 0.00 | 0.00 | 86 | 1021.0 |
| 20260903164805 | 58 | 3 | 0.0 | 0.0 | 0.00 | 0.00 | 0.00 | 86 | 1021.0 |
| 20260903164306 | 58 | 3 | 0.0 | 0.0 | 0.00 | 0.00 | 0.00 | 86 | 1021.0 |
| 20260903163805 | 58 | 3 | 0.0 | 0.0 | 0.00 | 0.00 | 0.00 | 86 | 1021.0 |
| 20260903162804 | 58 | 3 | 0.0 | 0.0 | 0.00 | 0.00 | 0.00 | 86 | 1021.1 |
| 20260903162306 | 58 | 3 | 0.0 | 0.0 | 0.00 | 0.00 | 0.00 | 86 | 1021.1 |
| 20260903161304 | 58 | 3 | 0.0 | 0.0 | 0.00 | 0.00 | 0.00 | 86 | 1021.3 |
| 20260903160304 | 58 | 3 | 0.0 | 0.0 | 0.00 | 0.00 | 0.00 | 86 | 1021.4 |
| 20260903155804 | 58 | 2 | 0.0 | 0.0 | 0.00 | 0.00 | 0.00 | 86 | 1021.4 |
| 20260903155306 | 58 | 3 | 0.0 | 0.0 | 0.00 | 0.00 | 0.00 | 86 | 1021.4 |
| 20260903154805 | 58 | 3 | 0.0 | 0.0 | 0.00 | 0.00 | 0.00 | 86 | 1021.4 |
| 20260903154305 | 58 | 6 | 0.0 | 0.0 | 0.00 | 0.00 | 0.00 | 86 | 1021.5 |
| 20260903153805 | 58 | 116 | 0.0 | 0.0 | 0.00 | 0.00 | 0.00 | 86 | 1021.6 |
| 20260903153305 | 58 | 116 | 0.0 | 3.0 | 0.00 | 0.00 | 0.00 | 86 | 1021.5 |
| 20260903152805 | 59 | 116 | 2.0 | 3.0 | 0.00 | 0.00 | 0.00 | 86 | 1021.5 |
| 20260903152306 | 59 | 116 | 1.0 | 2.0 | 0.00 | 0.00 | 0.00 | 86 | 1021.5 |
| 20260903151305 | 59 | 116 | 1.0 | 3.0 | 0.00 | 0.00 | 0.00 | 86 | 1021.7 |
| 20260903150805 | 58 | 116 | 0.0 | 3.0 | 0.00 | 0.00 | 0.00 | 86 | 1021.7 |
| 20260903145805 | 58 | 116 | 0.0 | 0.0 | 0.00 | 0.00 | 0.00 | 86 | 1021.8 |
| 20260903145306 | 58 | 116 | 0.0 | 0.0 | 0.00 | 0.00 | 0.00 | 85 | 1021.8 |
| 20260903144305 | 58 | 116 | 0.0 | 0.0 | 0.00 | 0.00 | 0.00 | 85 | 1021.8 |
| 20260903143305 | 58 | 116 | 0.0 | 0.0 | 0.00 | 0.00 | 0.00 | 85 | 1021.9 |
| 20260903142806 | 58 | 116 | 0.0 | 0.0 | 0.00 | 0.00 | 0.00 | 85 | 1022.0 |
| 20260903142306 | 58 | 116 | 0.0 | 0.0 | 0.00 | 0.00 | 0.00 | 85 | 1022.1 |
| 20260903141804 | 58 | 116 | 0.0 | 0.0 | 0.00 | 0.00 | 0.00 | 85 | 1022.2 |
| 20260903141306 | 59 | 116 | 0.0 | 0.0 | 0.00 | 0.00 | 0.00 | 85 | 1022.2 |
| 20260903140805 | 59 | 116 | 0.0 | 0.0 | 0.00 | 0.00 | 0.00 | 85 | 1022.2 |
| 20260903140304 | 59 | 116 | 0.0 | 0.0 | 0.00 | 0.00 | 0.00 | 85 | 1022.3 |
| 20260903135805 | 59 | 116 | 0.0 | 0.0 | 0.00 | 0.00 | 0.00 | 85 | 1022.3 |
| 20260903135306 | 59 | 116 | 0.0 | 0.0 | 0.00 | 0.00 | 0.00 | 85 | 1022.3 |
| 20260903134804 | 59 | 116 | 0.0 | 0.0 | 0.00 | 0.00 | 0.00 | 84 | 1022.4 |
| 20260903134305 | 59 | 116 | 0.0 | 1.0 | 0.00 | 0.00 | 0.00 | 84 | 1022.4 |
| 20260903133804 | 59 | 116 | 0.0 | 2.0 | 0.00 | 0.00 | 0.00 | 84 | 1022.4 |
| 20260903133304 | 59 | 116 | 0.0 | 2.0 | 0.00 | 0.00 | 0.00 | 84 | 1022.4 |
| 20260903132306 | 60 | 116 | 2.0 | 6.0 | 0.00 | 0.00 | 0.00 | 84 | 1022.5 |
| 20260903131804 | 60 | 117 | 2.0 | 3.0 | 0.00 | 0.00 | 0.00 | 84 | 1022.5 |
| 20260903130805 | 60 | 117 | 1.0 | 2.0 | 0.00 | 0.00 | 0.00 | 84 | 1022.5 |
| 20260903130305 | 60 | 117 | 0.0 | 0.0 | 0.00 | 0.00 | 0.00 | 83 | 1022.5 |
| 20260903124805 | 60 | 117 | 0.0 | 0.0 | 0.00 | 0.00 | 0.00 | 83 | 1022.5 |
| 20260903124304 | 60 | 117 | 0.0 | 0.0 | 0.00 | 0.00 | 0.00 | 83 | 1022.5 |
| 20260903123806 | 60 | 117 | 0.0 | 0.0 | 0.00 | 0.00 | 0.00 | 82 | 1022.5 |
| 20260903123304 | 60 | 117 | 0.0 | 0.0 | 0.00 | 0.00 | 0.00 | 82 | 1022.6 |
| 20260903122804 | 60 | 117 | 0.0 | 0.0 | 0.00 | 0.00 | 0.00 | 82 | 1022.5 |
| 20260903121805 | 61 | 117 | 1.0 | 2.0 | 0.00 | 0.00 | 0.00 | 82 | 1022.4 |
| 20260903121305 | 61 | 117 | 2.0 | 3.0 | 0.00 | 0.00 | 0.00 | 82 | 1022.4 |
| 20260903120804 | 61 | 117 | 0.0 | 0.0 | 0.00 | 0.00 | 0.00 | 81 | 1022.4 |
| 20260903115806 | 61 | 117 | 1.0 | 2.0 | 0.00 | 0.00 | 0.00 | 81 | 1022.3 |
| 20260903115306 | 61 | 117 | 0.0 | 2.0 | 0.00 | 0.00 | 0.00 | 81 | 1022.3 |
| 20260903114804 | 62 | 117 | 1.0 | 2.0 | 0.00 | 0.00 | 0.00 | 81 | 1022.3 |
| 20260903114305 | 62 | 117 | 1.0 | 2.0 | 0.00 | 0.00 | 0.00 | 81 | 1022.3 |
| 20260903113805 | 62 | 117 | 2.0 | 3.0 | 0.00 | 0.00 | 0.00 | 80 | 1022.3 |
| 20260903113305 | 62 | 117 | 0.0 | 0.0 | 0.00 | 0.00 | 0.00 | 80 | 1022.3 |
| 20260903112804 | 62 | 117 | 0.0 | 0.0 | 0.00 | 0.00 | 0.00 | 80 | 1022.3 |
| 20260903112305 | 62 | 117 | 0.0 | 0.0 | 0.00 | 0.00 | 0.00 | 80 | 1022.3 |
| 20260903111804 | 63 | 117 | 0.0 | 1.0 | 0.00 | 0.00 | 0.00 | 80 | 1022.3 |
| 20260903110804 | 63 | 117 | 1.0 | 2.0 | 0.00 | 0.00 | 0.00 | 80 | 1022.2 |
| 20260903110303 | 63 | 117 | 2.0 | 3.0 | 0.00 | 0.00 | 0.00 | 79 | 1022.2 |
| 20260903105804 | 63 | 117 | 0.0 | 0.0 | 0.00 | 0.00 | 0.00 | 78 | 1022.1 |
| 20260903105306 | 64 | 117 | 0.0 | 0.0 | 0.00 | 0.00 | 0.00 | 77 | 1022.0 |
| 20260903104806 | 64 | 117 | 0.0 | 0.0 | 0.00 | 0.00 | 0.00 | 77 | 1022.0 |
| 20260903104304 | 64 | 117 | 0.0 | 0.0 | 0.00 | 0.00 | 0.00 | 77 | 1022.0 |
| 20260903103804 | 65 | 117 | 0.0 | 0.0 | 0.00 | 0.00 | 0.00 | 76 | 1021.9 |
| 20260903103304 | 65 | 117 | 0.0 | 2.0 | 0.00 | 0.00 | 0.00 | 75 | 1021.9 |
| 20260903102804 | 65 | 117 | 1.0 | 1.0 | 0.00 | 0.00 | 0.00 | 75 | 1021.8 |
| 20260903102306 | 65 | 117 | 1.0 | 2.0 | 0.00 | 0.00 | 0.00 | 75 | 1021.8 |
| 20260903101805 | 65 | 117 | 1.0 | 2.0 | 0.00 | 0.00 | 0.00 | 73 | 1021.7 |
| 20260903101305 | 66 | 117 | 1.0 | 3.0 | 0.00 | 0.00 | 0.00 | 73 | 1021.7 |
| 20260903100804 | 66 | 117 | 2.0 | 3.0 | 0.00 | 0.00 | 0.00 | 72 | 1021.6 |
| 20260903100304 | 66 | 117 | 2.0 | 3.0 | 0.00 | 0.00 | 0.00 | 71 | 1021.6 |
| 20260903095804 | 66 | 116 | 0.0 | 0.0 | 0.00 | 0.00 | 0.00 | 70 | 1021.6 |
| 20260903095306 | 66 | 116 | 0.0 | 0.0 | 0.00 | 0.00 | 0.00 | 71 | 1021.5 |
| 20260903094805 | 67 | 116 | 1.0 | 3.0 | 0.00 | 0.00 | 0.00 | 70 | 1021.4 |
| 20260903094304 | 67 | 116 | 1.0 | 3.0 | 0.00 | 0.00 | 0.00 | 70 | 1021.4 |
| 20260903093805 | 67 | 116 | 2.0 | 3.0 | 0.00 | 0.00 | 0.00 | 69 | 1021.3 |
| 20260903092804 | 67 | 117 | 2.0 | 6.0 | 0.00 | 0.00 | 0.00 | 68 | 1021.2 |
| 20260903092306 | 68 | 117 | 3.0 | 7.0 | 0.00 | 0.00 | 0.00 | 67 | 1021.1 |
| 20260903091805 | 68 | 117 | 2.0 | 7.0 | 0.00 | 0.00 | 0.00 | 67 | 1021.1 |
| 20260903091304 | 68 | 117 | 2.0 | 6.0 | 0.00 | 0.00 | 0.00 | 66 | 1021.1 |
| 20260903090805 | 68 | 117 | 3.0 | 8.0 | 0.00 | 0.00 | 0.00 | 66 | 1021.0 |
| 20260903090305 | 69 | 117 | 3.0 | 6.0 | 0.00 | 0.00 | 0.00 | 64 | 1021.0 |
| 20260903085306 | 69 | 119 | 2.0 | 3.0 | 0.00 | 0.00 | 0.00 | 62 | 1021.0 |
| 20260903084804 | 69 | 119 | 3.0 | 7.0 | 0.00 | 0.00 | 0.00 | 61 | 1020.9 |
| 20260903084305 | 70 | 123 | 3.0 | 5.0 | 0.00 | 0.00 | 0.00 | 59 | 1020.8 |
| 20260903083804 | 70 | 128 | 3.0 | 8.0 | 0.00 | 0.00 | 0.00 | 58 | 1020.7 |
| 20260903083304 | 70 | 136 | 4.0 | 9.0 | 0.00 | 0.00 | 0.00 | 58 | 1020.7 |
| 20260903082306 | 71 | 143 | 7.0 | 13.0 | 0.00 | 0.00 | 0.00 | 56 | 1020.6 |
| 20260903081805 | 71 | 136 | 6.0 | 12.0 | 0.00 | 0.00 | 0.00 | 56 | 1020.5 |
| 20260903081305 | 72 | 127 | 5.0 | 12.0 | 0.00 | 0.00 | 0.00 | 55 | 1020.5 |
| 20260903080805 | 72 | 113 | 6.0 | 12.0 | 0.00 | 0.00 | 0.00 | 54 | 1020.5 |
| 20260903080305 | 73 | 125 | 6.0 | 10.0 | 0.00 | 0.00 | 0.00 | 54 | 1020.4 |
| 20260903075805 | 73 | 120 | 6.0 | 12.0 | 0.00 | 0.00 | 0.00 | 52 | 1020.4 |
| 20260903075306 | 73 | 89 | 4.0 | 9.0 | 0.00 | 0.00 | 0.00 | 52 | 1020.3 |
| 20260903074804 | 73 | 120 | 5.0 | 9.0 | 0.00 | 0.00 | 0.00 | 56 | 1020.3 |
| 20260903074304 | 74 | 118 | 6.0 | 12.0 | 0.00 | 0.00 | 0.00 | 58 | 1020.3 |
| 20260903073804 | 74 | 79 | 6.0 | 9.0 | 0.00 | 0.00 | 0.00 | 63 | 1020.3 |
| 20260903072806 | 75 | 50 | 5.0 | 10.0 | 0.00 | 0.00 | 0.00 | 64 | 1020.1 |
| 20260903072306 | 76 | 94 | 7.0 | 12.0 | 0.00 | 0.00 | 0.00 | 60 | 1020.1 |
| 20260903071805 | 76 | 101 | 7.0 | 12.0 | 0.00 | 0.00 | 0.00 | 59 | 1020.0 |